Location: Unspecified
(46.0712°N, 0.0000°E)
Time: 07:10:46
(UTC+00:00)

HJ-1B - Visible Passes

Search period start: 04 April 2026 00:00
Search period end: 14 April 2026 00:00
Orbit: 593 x 646 km, 97.6° (Epoch: 29 March)

Date Brightness Start Highest point End Pass type
(mag) Time Alt. Az. Time Alt. Az. Time Alt. Az.
5 Apr 9.7 03:59:56 10° ENE 04:01:43 12° E 04:03:30 10° ESE visible
6 Apr 9.4 04:15:56 10° NE 04:18:57 18° E 04:21:58 10° SE visible
7 Apr 8.9 04:32:27 10° NE 04:36:07 27° E 04:39:48 10° SSE visible
8 Apr 8.1 04:49:12 10° NNE 04:53:15 40° E 04:57:20 10° SSE visible
11 Apr 9.6 04:05:27 10° NE 04:07:54 15° E 04:10:21 10° SE visible
12 Apr 9.3 04:21:43 10° NE 04:25:05 22° E 04:28:27 10° SE visible
13 Apr 8.6 04:38:20 10° NNE 04:42:13 32° E 04:46:09 10° SSE visible
